Date,TemperatureHighF,TemperatureAvgF,TemperatureLowF,DewpointHighF,DewpointAvgF,DewpointLowF,HumidityHigh,HumidityAvg,HumidityLow,PressureMaxIn,PressureMinIn,WindSpeedMaxMPH,WindSpeedAvgMPH,GustSpeedMaxMPH,PrecipitationSumIn
2013-1-1,82.2,33.6,70.4,69.8,-28.2,-99.9,91,30,59,30.04,29.93,9,1,18,0.00
2013-1-2,83.8,34.9,67.6,67.8,-27.8,-99.9,90,27,51,30.01,29.92,8,2,19,0.00
2013-1-3,81.4,31.6,69.1,71.5,-29.7,-99.9,90,33,67,30.07,29.96,6,1,17,0.00
2013-1-4,84.3,36.0,68.8,68.6,-25.0,-99.9,91,29,54,30.12,30.01,7,2,16,0.00
2013-1-5,82.0,34.0,71.6,69.3,-28.5,-99.9,89,28,57,30.14,30.03,10,3,19,0.00
2013-1-6,83.4,34.2,69.1,67.9,-29.1,-99.9,88,27,49,30.08,29.99,11,2,20,0.00
2013-1-7,83.4,34.9,73.7,70.2,-27.0,-99.9,87,29,53,30.07,29.96,9,2,20,0.00
2013-1-8,82.6,33.8,69.3,70.1,-26.4,-99.9,90,32,58,30.11,29.99,10,2,21,0.00
2013-1-9,82.2,33.6,69.1,69.0,-29.6,-99.9,91,27,46,30.14,30.03,9,2,18,0.00
2013-1-10,-200.0,0.0,200.0,-99.9,-99.9,-99.9,0,0,100,30.11,30.05,0,0,0,0.00
2013-1-13,79.9,34.2,65.8,64.0,-29.3,-99.9,88,27,48,29.99,29.91,7,2,15,0.00
2013-1-14,79.8,33.2,66.4,66.4,-28.8,-99.9,92,28,48,30.02,29.91,7,2,17,0.00
2013-1-15,81.6,34.6,66.8,66.7,-26.1,-99.9,88,30,55,30.00,29.90,10,2,19,0.00
2013-1-16,79.4,32.6,68.4,67.1,-29.1,-99.9,88,30,62,30.01,29.91,8,1,16,0.00
2013-1-17,84.0,34.5,68.3,66.9,-28.4,-99.9,90,27,44,30.03,29.91,5,1,15,0.00
2013-1-18,82.2,32.3,70.8,69.1,-30.4,-99.9,90,29,53,30.05,29.94,7,1,18,0.00
2013-1-19,81.8,32.4,67.6,67.8,-30.9,-99.9,88,28,55,30.06,29.92,7,1,14,0.00
2013-1-20,84.0,35.5,68.1,67.5,-26.2,-99.9,90,28,49,30.02,29.92,7,1,15,0.00
2013-1-21,83.0,34.4,67.6,68.5,-27.1,-99.9,87,29,58,29.99,29.89,6,1,14,0.00
2013-1-22,84.7,35.1,69.8,69.0,-26.8,-99.9,88,29,50,30.02,29.92,8,2,17,0.00
2013-1-23,85.1,35.4,71.8,71.3,-26.5,-99.9,92,29,50,30.07,29.96,7,2,19,0.00
2013-1-24,84.7,35.6,74.4,68.5,-27.4,-99.9,81,26,50,30.06,29.94,7,2,15,0.00
2013-1-25,83.8,34.2,69.6,70.0,-26.8,-99.9,84,30,55,30.05,29.94,7,1,16,0.00
2013-1-26,82.8,33.1,72.0,71.2,-29.7,-99.9,93,29,57,30.05,29.97,7,2,19,0.00
2013-1-27,82.8,33.4,69.3,71.3,-27.9,-99.9,90,31,58,30.10,29.99,5,1,14,0.00
2013-1-28,81.8,35.9,70.4,70.5,-23.0,-99.9,88,32,59,30.12,30.02,10,2,19,0.00
2013-1-29,81.4,29.6,69.9,69.9,-35.2,-99.9,91,29,59,30.08,29.96,5,1,12,0.00
2013-1-30,80.7,34.0,68.8,68.4,-27.3,-99.9,92,30,58,30.05,29.96,9,2,18,0.00
2013-1-31,83.2,36.3,70.6,71.5,-22.6,-99.9,93,33,60,30.04,29.94,8,2,17,0.00
2013-2-1,78.6,32.1,71.5,69.3,-28.2,-99.9,90,34,69,30.05,29.94,5,1,14,0.00
2013-2-2,83.2,35.7,65.8,64.3,-25.5,-99.9,89,28,46,30.02,29.91,5,1,14,0.00
2013-2-3,83.8,35.8,67.6,66.4,-27.2,-99.9,89,25,43,29.97,29.85,8,2,16,0.00
2013-2-4,80.9,34.8,67.6,65.0,-27.3,-99.9,83,27,48,29.97,29.86,7,1,17,0.00
2013-2-5,82.6,34.8,63.9,64.9,-27.6,-99.9,84,26,49,30.01,29.91,6,2,15,0.00
2013-2-6,83.8,34.7,70.6,67.0,-28.0,-99.9,88,27,46,30.00,29.89,6,2,17,0.00
2013-2-7,84.9,36.9,67.1,66.7,-24.4,-99.9,87,28,49,29.97,29.85,8,2,15,0.00
2013-2-8,83.0,35.0,72.1,69.7,-26.7,-99.9,89,29,55,29.97,29.87,9,2,20,0.14
2013-2-9,84.5,36.2,69.6,66.8,-26.1,-99.9,88,27,47,29.99,29.89,7,2,16,0.00
2013-2-10,83.6,36.4,68.1,66.7,-24.8,-99.9,86,28,48,30.03,29.93,9,3,17,0.00
2013-2-11,79.6,31.3,70.4,69.8,-29.9,-99.9,88,33,66,30.07,29.98,9,2,20,0.50
2013-2-12,81.1,35.3,65.5,63.7,-25.5,-99.9,87,28,53,30.05,29.97,9,2,18,0.00
2013-2-13,84.1,36.3,64.5,63.2,-26.8,-99.9,88,24,35,30.04,29.93,6,1,14,0.00
2013-2-14,83.2,36.4,68.4,67.2,-23.8,-99.9,88,29,55,30.04,29.95,7,2,15,0.00
2013-2-15,84.1,36.9,70.3,68.9,-23.8,-99.9,90,29,51,30.04,29.92,9,2,21,0.00
2013-2-16,84.0,36.1,73.0,68.0,-26.3,-99.9,81,26,46,29.99,29.89,9,2,23,0.00
2013-2-17,84.1,34.9,70.9,69.9,-27.3,-99.9,89,28,49,30.02,29.91,9,2,17,0.00
2013-2-18,83.0,34.3,68.6,66.9,-27.5,-99.9,89,29,54,30.07,29.96,9,2,18,0.01
2013-2-19,83.0,35.8,68.6,67.7,-24.3,-99.9,88,30,49,30.07,29.95,10,2,28,0.02
2013-2-20,83.2,34.4,69.4,70.1,-27.0,-99.9,89,30,53,30.02,29.88,8,2,18,0.05
2013-2-21,84.7,37.4,74.2,69.3,-23.6,-99.9,83,28,52,30.00,29.87,8,3,19,0.00
2013-2-22,83.8,36.4,68.8,67.2,-24.0,-99.9,84,29,52,30.02,29.91,9,2,16,0.00
2013-2-23,84.3,37.4,69.6,66.8,-22.9,-99.9,87,28,44,30.01,29.90,9,2,18,0.00
2013-2-24,83.6,35.6,67.8,68.1,-25.7,-99.9,86,29,52,29.99,29.86,8,2,21,0.00
2013-2-25,84.9,37.0,69.9,67.3,-24.5,-99.9,87,27,48,29.96,29.85,7,2,17,0.00
2013-2-26,84.9,37.3,70.8,68.1,-24.4,-99.9,87,27,46,30.00,29.90,8,2,17,0.00
2013-2-27,86.1,38.5,74.0,69.6,-22.2,-99.9,85,28,45,30.00,29.89,8,2,20,0.00
2013-2-28,85.1,38.1,70.3,66.4,-23.0,-99.9,85,27,47,29.97,29.85,8,2,18,0.00
2013-3-1,85.5,38.3,68.3,66.7,-22.2,-99.9,84,27,43,29.93,29.80,7,2,14,0.00
2013-3-2,84.3,38.1,66.8,64.4,-22.1,-99.9,84,27,44,29.92,29.82,7,2,14,0.00
2013-3-3,87.2,39.4,67.6,67.7,-20.3,-99.9,86,28,47,29.94,29.83,8,2,19,0.00
2013-3-4,89.5,30.2,72.5,68.4,-39.0,-99.9,84,22,43,30.00,29.88,10,1,20,0.00
2013-3-5,75.4,32.1,72.0,69.5,-26.3,-99.9,90,37,73,30.04,29.94,5,1,15,0.10
2013-3-6,81.8,37.6,67.9,65.9,-21.0,-99.9,85,30,56,30.02,29.91,6,1,13,0.00
2013-3-7,73.5,6.6,71.3,67.3,-84.8,-99.9,84,7,81,29.99,29.91,4,0,10,0.00
2013-3-12,81.6,36.5,67.9,61.8,-25.9,-99.9,78,24,42,30.02,29.91,8,2,17,0.00
2013-3-13,83.0,37.1,70.8,62.5,-26.3,-99.9,69,22,39,29.99,29.88,8,2,16,0.00
2013-3-14,83.2,35.3,71.1,62.4,-29.2,-99.9,74,22,39,29.97,29.83,6,1,14,0.00
2013-3-15,83.4,38.7,66.8,62.3,-22.5,-99.9,81,25,41,29.97,29.85,8,2,17,0.00
2013-3-16,81.8,36.4,68.3,68.4,-23.4,-99.9,81,29,49,30.00,29.90,9,2,18,0.00
2013-3-17,83.6,36.9,67.9,67.5,-22.6,-99.9,88,30,52,30.05,29.93,9,2,19,0.01
2013-3-18,79.6,36.5,68.8,69.2,-20.4,-99.9,87,34,58,30.05,29.94,10,2,23,0.11
2013-3-19,84.3,37.5,69.4,68.6,-22.0,-99.9,92,30,50,29.99,29.85,8,2,19,0.00
2013-3-20,86.7,39.3,70.6,68.8,-20.7,-99.9,87,28,46,29.92,29.81,9,2,19,0.00
2013-3-21,88.4,40.1,75.8,70.0,-19.6,-99.9,79,28,49,29.91,29.78,8,2,17,0.00
2013-3-22,-200.0,0.0,200.0,-99.9,-99.9,-99.9,0,0,100,29.89,29.86,0,0,0,0.00
2013-3-24,87.2,40.6,72.5,70.1,-18.0,-99.9,86,30,48,29.97,29.83,8,2,19,0.00
2013-3-25,87.8,40.0,76.1,69.6,-19.7,-99.9,78,29,48,29.95,29.82,8,2,18,0.00
2013-3-26,88.2,38.6,72.7,71.2,-23.8,-99.9,89,26,40,29.98,29.86,7,2,21,0.00
2013-3-27,90.7,40.8,70.6,69.0,-21.6,-99.9,84,24,33,29.99,29.86,7,2,15,0.00
2013-3-28,88.2,35.1,72.3,70.3,-28.8,-99.9,85,26,43,29.97,29.87,9,1,16,0.00
2013-3-29,81.2,33.9,71.5,69.9,-24.5,-99.9,89,35,63,30.07,29.92,9,2,18,0.48
2013-3-30,80.7,34.7,70.8,70.4,-24.6,-99.9,90,33,63,30.08,29.98,9,2,18,0.03
2013-3-31,78.6,30.6,71.3,71.1,-30.9,-99.9,92,34,72,30.08,29.99,7,1,17,0.32
2013-4-1,84.9,38.2,75.6,70.4,-21.2,-99.9,79,30,53,30.06,29.95,10,3,21,0.00
2013-4-2,85.9,39.6,75.6,70.4,-19.2,-99.9,82,30,54,30.00,29.91,8,3,20,0.00
2013-4-3,87.8,41.1,74.0,71.3,-17.8,-99.9,84,29,46,30.02,29.90,7,2,20,0.00
2013-4-4,87.0,41.6,73.9,70.4,-16.8,-99.9,87,29,46,30.03,29.92,9,3,20,0.00
2013-4-5,84.0,37.0,73.0,71.5,-20.4,-99.9,90,35,60,30.02,29.89,7,2,16,0.25
2013-4-6,85.9,40.5,72.1,71.2,-17.2,-99.9,87,31,53,29.99,29.88,9,3,23,0.00
2013-4-7,87.8,39.9,73.2,72.4,-19.1,-99.9,90,30,48,30.00,29.89,7,2,18,0.00
2013-4-8,87.6,40.2,76.5,72.0,-19.6,-99.9,86,28,48,30.00,29.89,8,3,18,0.00
2013-4-9,87.0,41.6,74.4,70.6,-16.1,-99.9,85,30,47,30.01,29.88,10,3,19,0.00
2013-4-10,86.5,41.5,72.3,69.4,-17.0,-99.9,86,29,46,29.98,29.88,9,3,19,0.00
2013-4-11,86.3,40.3,70.9,67.3,-19.7,-99.9,84,27,37,29.98,29.87,9,3,19,0.00
2013-4-12,86.3,40.5,70.8,69.0,-18.5,-99.9,85,29,48,29.97,29.87,9,3,18,0.00
2013-4-13,86.1,42.1,73.9,69.8,-14.3,-99.9,85,32,52,29.95,29.86,10,3,21,0.00
2013-4-14,86.1,40.5,76.0,70.6,-17.5,-99.9,81,31,52,29.97,29.88,9,3,20,0.00
2013-4-15,86.1,41.0,74.4,71.6,-15.4,-99.9,85,33,53,30.00,29.91,9,3,20,0.00
2013-4-16,86.3,34.7,71.5,70.2,-26.2,-99.9,86,31,55,29.99,29.89,8,1,16,0.00
2013-4-17,85.1,40.3,69.1,69.8,-16.1,-99.9,91,33,56,29.96,29.86,10,3,21,0.00
2013-4-18,85.3,39.6,72.7,69.4,-18.1,-99.9,84,31,53,29.99,29.89,11,3,21,0.00
2013-4-19,80.9,36.7,72.8,70.2,-21.1,-99.9,91,34,62,30.03,29.93,11,3,18,0.18
2013-4-20,80.9,38.3,71.3,69.1,-18.0,-99.9,89,34,59,30.02,29.92,9,2,18,0.00
2013-4-21,82.2,38.7,70.3,69.2,-19.4,-99.9,90,31,51,30.01,29.91,9,2,17,0.01
2013-4-22,84.1,39.6,66.6,67.0,-18.7,-99.9,83,29,45,29.97,29.86,8,2,17,0.01
2013-4-23,85.5,40.5,68.6,66.7,-17.5,-99.9,89,30,49,29.96,29.85,10,3,21,0.00
2013-4-24,84.1,27.8,72.7,70.7,-40.2,-99.9,84,26,59,29.97,29.88,7,1,14,0.00
2013-4-25,84.5,40.1,69.3,68.4,-16.6,-99.9,90,32,55,29.98,29.88,8,2,15,0.02
2013-4-26,84.1,40.5,69.9,68.1,-17.0,-99.9,87,31,51,29.97,29.89,9,3,18,0.00
2013-4-27,81.8,35.4,70.9,71.1,-22.5,-99.9,87,35,61,29.96,29.85,7,1,17,0.74
2013-4-28,85.3,37.4,71.3,71.5,-20.9,-99.9,91,33,53,29.94,29.84,8,2,17,0.15
2013-4-29,84.7,39.4,70.4,71.2,-15.3,-99.9,89,37,54,29.94,29.86,7,1,15,0.00
2013-4-30,83.0,37.7,70.9,72.8,-18.2,-99.9,90,37,61,29.95,29.88,7,1,15,0.20
2013-5-1,86.3,42.0,72.1,70.8,-14.1,-99.9,90,32,49,29.94,29.85,9,2,18,0.00
2013-5-2,87.8,37.7,74.6,73.7,-19.7,-99.9,89,35,55,29.89,29.79,5,1,12,0.56
2013-5-3,91.2,42.3,72.7,72.5,-15.2,-99.9,89,31,40,29.85,29.74,8,2,16,0.01
2013-5-4,91.2,44.8,72.5,71.4,-11.8,-99.9,86,30,48,29.82,29.70,11,3,21,0.00
2013-5-5,90.3,39.5,74.0,74.5,-19.6,-99.9,86,31,53,29.88,29.73,8,2,16,0.06
2013-5-6,89.9,41.4,74.2,75.4,-12.3,-99.9,88,38,51,29.96,29.83,7,1,17,0.17
2013-5-7,88.4,39.9,74.0,73.8,-15.6,-99.9,90,36,59,30.03,29.88,7,1,21,0.20
2013-5-8,85.3,27.0,75.6,75.1,-42.2,-99.9,87,26,65,30.06,29.96,8,1,19,0.18
2013-5-9,84.9,39.4,74.7,73.0,-15.9,-99.9,93,37,61,30.08,29.97,8,2,21,0.02
2013-5-10,85.5,37.2,75.6,73.7,-21.0,-99.9,88,34,66,30.06,29.88,7,2,16,0.04
2013-5-11,89.0,41.0,71.3,71.1,-15.3,-99.9,89,33,52,29.99,29.86,8,1,16,0.00
2013-5-12,85.3,40.9,73.7,73.8,-12.7,-99.9,88,38,60,29.95,29.87,8,1,15,0.29
2013-5-13,84.7,31.0,73.5,73.3,-32.9,-99.9,90,31,64,29.97,29.90,5,0,12,0.00
2013-5-14,84.1,40.5,75.6,73.6,-14.1,-99.9,84,37,61,29.99,29.89,8,2,18,0.06
2013-5-15,87.0,30.2,76.8,72.8,-39.3,-99.9,81,24,57,29.96,29.90,9,2,18,0.00
2013-5-16,87.4,42.2,73.9,71.3,-13.6,-99.9,89,33,54,29.97,29.88,5,1,13,0.00
2013-5-17,87.8,42.7,72.8,71.2,-13.5,-99.9,89,32,52,30.02,29.92,9,2,18,0.00
2013-5-18,88.8,42.5,71.8,70.6,-14.1,-99.9,86,31,48,30.01,29.92,6,1,15,0.00
2013-5-19,88.6,42.8,73.5,70.7,-13.9,-99.9,87,31,50,29.99,29.91,8,2,18,0.00
2013-5-20,87.6,42.2,74.4,70.9,-13.7,-99.9,86,33,48,29.98,29.89,9,2,16,0.00
2013-5-21,84.9,37.0,74.7,72.7,-19.7,-99.9,86,36,58,29.97,29.89,7,1,18,0.14
2013-5-22,84.1,31.9,73.0,72.2,-30.4,-99.9,91,32,64,29.99,29.88,10,1,22,0.64
2013-5-23,87.0,43.7,72.1,71.6,-10.3,-99.9,92,34,50,30.00,29.93,9,3,20,0.00
2013-5-24,85.9,38.2,74.0,73.3,-19.5,-99.9,89,34,61,30.01,29.91,8,2,18,0.05
2013-5-25,84.9,40.8,76.3,73.0,-14.5,-99.9,86,35,58,30.00,29.92,8,2,18,0.00
2013-5-26,86.5,42.1,75.3,73.0,-12.5,-99.9,88,35,58,30.02,29.93,8,2,16,0.00
2013-5-27,88.2,43.1,76.1,74.7,-10.4,-99.9,89,37,54,30.02,29.92,8,2,19,0.20
2013-5-28,87.2,42.4,74.2,74.3,-12.1,-99.9,91,36,59,30.00,29.92,7,2,17,0.01
2013-5-29,88.0,43.0,75.3,72.3,-12.9,-99.9,87,33,54,30.01,29.91,10,3,19,0.00
2013-5-30,87.0,42.6,74.9,74.1,-12.5,-99.9,87,34,59,30.02,29.93,9,3,20,0.00
2013-5-31,84.3,41.0,77.6,74.8,-11.7,-99.9,86,40,67,30.03,29.94,7,1,16,0.21
2013-6-1,87.2,43.3,74.0,72.1,-10.9,-99.9,90,35,58,30.01,29.94,8,3,20,0.00
2013-6-2,85.7,42.1,76.0,73.1,-12.7,-99.9,86,35,57,30.02,29.93,9,2,20,0.15
2013-6-3,87.4,39.6,78.3,73.3,-19.3,-99.9,82,31,58,30.00,29.92,8,3,19,0.00
2013-6-4,83.8,40.5,76.8,73.8,-14.4,-99.9,89,36,59,30.03,29.91,7,2,19,0.01
2013-6-5,86.1,33.0,78.1,74.3,-30.5,-99.9,88,30,65,29.99,29.94,6,1,14,0.00
2013-6-12,85.1,41.4,74.7,75.2,-11.5,-99.9,92,40,67,30.05,29.95,0,0,0,0.46
2013-6-13,89.0,43.6,78.6,74.3,-11.9,-99.9,84,34,56,30.02,29.92,9,1,20,0.00
2013-6-14,86.3,14.7,77.6,75.1,-71.0,-99.9,90,12,63,29.99,29.90,7,1,17,0.04
2013-6-15,87.4,41.7,78.5,77.5,-12.4,-99.9,89,38,66,30.02,29.91,8,2,17,0.13
2013-6-16,89.0,42.6,77.9,74.1,-14.0,-99.9,86,33,55,30.01,29.91,8,2,17,0.00
2013-6-17,87.0,42.5,79.2,75.0,-12.1,-99.9,81,35,55,30.01,29.95,8,2,16,0.01
2013-6-18,89.7,43.7,74.9,73.5,-12.9,-99.9,88,31,49,30.00,29.91,10,3,20,0.00
2013-6-19,84.3,33.6,74.6,73.8,-26.7,-99.9,88,34,66,30.00,29.92,9,2,24,0.44
2013-6-20,87.4,42.1,76.1,72.6,-14.7,-99.9,85,32,54,30.00,29.93,10,3,21,0.00
2013-6-21,86.5,41.7,75.4,70.9,-15.6,-99.9,85,31,54,30.01,29.94,10,2,20,0.00
2013-6-22,84.7,40.5,73.2,72.1,-13.1,-99.9,88,38,61,30.01,29.92,8,1,20,0.08
2013-6-23,84.5,42.1,73.9,74.0,-8.5,-99.9,91,42,66,30.01,29.93,9,1,20,0.16
2013-6-24,87.4,41.4,74.6,75.0,-11.6,-99.9,91,39,61,30.02,29.95,9,2,21,0.16
2013-6-25,88.4,30.5,74.9,74.2,-35.2,-99.9,90,28,55,29.99,29.94,8,1,19,0.90
2013-6-26,86.1,37.4,74.7,74.5,-19.1,-99.9,93,37,63,29.98,29.91,8,2,18,0.43
2013-6-27,85.7,38.4,74.6,74.8,-17.3,-99.9,91,37,65,29.98,29.91,9,1,19,0.05
2013-6-28,88.4,45.0,75.4,73.5,-9.5,-99.9,91,33,49,29.98,29.91,8,3,18,0.00
2013-6-29,89.0,43.6,76.7,72.9,-11.1,-99.9,87,34,50,29.97,29.89,9,2,21,0.00
2013-6-30,84.9,38.0,75.3,75.2,-16.8,-99.9,91,39,68,29.99,29.89,8,1,20,0.44
2013-7-1,85.9,41.9,74.4,75.2,-9.1,-99.9,93,42,66,30.05,29.94,12,2,25,0.58
2013-7-2,81.2,39.6,74.2,73.2,-12.4,-99.9,91,42,70,30.08,29.97,5,1,18,0.83
2013-7-3,87.6,41.4,73.0,72.1,-14.9,-99.9,92,33,52,30.02,29.94,9,2,19,0.00
2013-7-4,88.6,43.4,74.9,73.5,-12.4,-99.9,89,33,55,30.02,29.94,9,3,18,0.00
2013-7-5,89.0,43.8,74.6,72.0,-11.5,-99.9,89,33,47,30.02,29.93,8,2,17,0.00
2013-7-6,86.7,42.5,74.6,74.0,-8.9,-99.9,89,40,56,29.97,29.87,9,2,18,0.75
2013-7-7,87.6,42.9,75.8,75.8,-9.3,-99.9,93,40,61,29.97,29.88,11,2,22,0.28
2013-7-8,79.6,15.1,77.0,75.0,-66.1,-99.9,91,17,86,29.98,29.92,0,0,4,0.00
2013-7-9,84.5,8.5,76.8,74.1,-81.9,-99.9,87,8,71,30.06,29.96,6,0,14,0.00
2013-7-10,86.7,40.3,78.3,77.7,-13.8,-99.9,90,40,68,30.01,29.93,9,2,19,0.73
2013-7-11,89.5,43.6,78.3,74.1,-12.1,-99.9,85,33,53,30.00,29.91,8,2,15,0.00
2013-7-12,88.2,42.2,77.6,72.7,-15.1,-99.9,85,31,51,29.96,29.88,8,2,17,0.00
2013-7-13,85.5,36.9,75.6,72.8,-23.6,-99.9,86,30,57,29.95,29.87,8,2,15,0.01
2013-7-14,85.7,42.6,73.3,72.6,-10.8,-99.9,90,37,61,29.95,29.87,7,1,17,0.00
2013-7-15,86.3,41.0,75.1,74.8,-13.8,-99.9,91,37,60,29.99,29.90,7,2,21,0.20
2013-7-16,79.2,12.2,76.8,73.2,-72.9,-99.9,88,13,82,29.99,29.94,0,0,3,0.00
2013-7-17,89.3,42.6,78.5,74.0,-13.7,-99.9,81,33,55,30.01,29.93,10,3,19,0.01
2013-7-18,77.7,2.0,77.6,74.9,-95.4,-99.9,91,2,90,30.07,29.91,0,0,3,0.00
2013-7-28,85.9,38.0,74.4,74.3,-18.3,-99.9,89,37,64,29.99,29.92,7,1,18,0.65
2013-7-29,89.9,43.9,74.4,73.0,-14.1,-99.9,88,29,43,30.01,29.92,9,2,23,0.00
2013-7-30,88.8,42.8,77.4,74.1,-11.8,-99.9,87,36,59,30.05,29.92,7,1,17,0.05
2013-7-31,87.4,42.1,75.4,74.0,-12.2,-99.9,88,36,58,29.99,29.91,8,1,17,0.02
2013-8-1,85.7,22.1,75.4,74.7,-52.9,-99.9,93,21,64,30.02,29.91,5,0,13,0.02
2013-8-2,89.5,42.8,75.8,75.3,-13.9,-99.9,93,33,44,30.05,29.96,10,3,18,0.00
2013-8-3,-200.0,0.0,200.0,-99.9,-99.9,-99.9,0,0,100,30.04,30.00,0,0,0,0.00
2013-8-13,88.8,43.4,75.4,74.7,-12.1,-99.9,88,34,57,29.97,29.88,8,2,17,0.00
2013-8-14,90.5,50.1,77.2,75.0,-0.2,-99.9,87,37,52,29.95,29.89,9,3,19,0.00
2013-8-18,88.0,39.8,76.8,75.0,-15.2,-99.9,91,38,60,29.95,29.87,7,1,16,0.40
2013-8-19,90.3,42.7,74.6,73.8,-13.9,-99.9,89,33,52,29.91,29.81,8,2,17,0.00
2013-8-20,83.4,31.5,76.0,75.6,-32.9,-99.9,89,32,74,29.97,29.83,6,0,16,0.27
2013-8-21,88.6,40.8,76.0,75.4,-16.8,-99.9,88,33,60,29.97,29.87,8,2,18,0.00
2013-8-22,87.0,39.3,74.6,73.2,-16.2,-99.9,86,36,58,29.95,29.88,5,0,14,0.43
2013-8-23,89.5,40.2,76.0,75.4,-16.9,-99.9,91,34,61,29.94,29.85,7,1,18,0.00
2013-8-24,89.0,41.4,74.2,75.7,-15.3,-99.9,90,34,58,29.97,29.90,9,2,19,0.07
2013-8-25,88.6,40.4,75.4,73.7,-15.6,-99.9,87,35,54,29.98,29.90,10,2,20,0.09
2013-8-26,89.0,38.2,74.7,74.7,-20.0,-99.9,92,34,61,29.93,29.88,8,1,15,0.00
2013-8-27,88.0,39.8,77.2,75.3,-19.0,-99.9,90,32,59,29.94,29.84,7,2,18,0.01
2013-8-28,89.5,42.8,75.8,73.4,-13.8,-99.9,88,33,53,29.98,29.88,8,2,16,0.00
2013-8-29,90.3,40.6,76.1,74.6,-17.3,-99.9,90,33,54,29.96,29.86,5,1,14,0.00
2013-8-30,89.7,41.9,76.5,75.2,-15.1,-99.9,90,33,55,29.95,29.87,8,2,21,0.00
2013-8-31,89.0,42.1,76.7,75.0,-15.0,-99.9,87,33,57,29.95,29.85,7,2,16,0.00
2013-9-1,89.3,43.0,77.2,74.1,-13.5,-99.9,87,33,55,29.93,29.84,8,2,16,0.00
2013-9-2,86.1,39.9,76.0,73.8,-15.9,-99.9,86,35,59,29.90,29.81,7,1,20,0.21
2013-9-3,86.1,35.7,73.9,74.6,-24.5,-99.9,89,33,63,29.88,29.78,8,1,19,0.59
2013-9-4,84.0,27.7,75.3,76.4,-39.9,-99.9,91,28,76,29.87,29.80,6,0,14,0.21
2013-9-5,79.8,30.6,75.3,74.6,-31.3,-99.9,91,35,82,29.92,29.81,4,0,10,0.58
2013-9-6,83.0,36.4,75.8,74.5,-22.2,-99.9,89,35,73,29.92,29.83,5,1,12,0.00
2013-9-7,84.5,37.8,75.3,74.8,-19.0,-99.9,91,36,67,29.93,29.82,7,1,18,0.14
2013-9-8,89.5,40.6,72.7,74.4,-17.3,-99.9,92,32,57,29.91,29.80,8,2,19,0.00
2013-9-9,90.5,40.6,77.4,74.8,-18.8,-99.9,88,31,53,29.94,29.84,7,2,16,0.00
2013-9-10,89.3,41.6,74.9,73.6,-15.7,-99.9,89,32,53,29.96,29.87,8,2,18,0.00
2013-9-11,-200.0,0.0,200.0,-99.9,-99.9,-99.9,0,0,100,29.93,29.89,0,0,0,0.00
2013-9-23,91.8,40.8,77.6,75.1,-19.8,-99.9,86,29,51,29.97,29.86,7,2,17,0.00
2013-9-24,90.7,41.9,79.8,74.8,-17.7,-99.9,78,29,44,29.94,29.84,7,2,18,0.00
2013-9-25,90.7,41.5,77.0,73.6,-17.6,-99.9,87,30,51,29.90,29.79,8,2,18,0.00
2013-9-26,90.3,41.3,76.3,74.1,-17.6,-99.9,86,30,49,29.89,29.77,7,2,18,0.00
2013-9-27,91.4,41.0,76.1,73.6,-19.4,-99.9,84,28,51,29.89,29.78,7,2,17,0.00
2013-9-28,91.2,42.5,75.6,74.1,-16.0,-99.9,84,30,46,29.92,29.81,8,2,18,0.00
2013-9-29,91.8,41.7,76.1,74.7,-17.1,-99.9,85,30,54,29.93,29.82,8,2,21,0.00
2013-9-30,89.7,40.2,77.2,74.6,-18.6,-99.9,88,32,58,29.97,29.86,7,2,18,0.00
2013-10-1,89.9,38.8,77.9,76.0,-20.4,-99.9,87,32,55,29.95,29.86,8,1,19,1.13
2013-10-2,90.3,39.2,76.0,73.3,-21.6,-99.9,89,29,49,29.92,29.81,7,2,19,0.00
2013-10-3,89.9,43.4,76.0,74.4,-12.3,-99.9,86,34,53,29.92,29.83,8,2,17,0.00
2013-10-4,87.2,28.7,76.8,75.6,-39.2,-99.9,91,27,65,29.91,29.85,4,0,12,0.00
2013-10-6,91.2,40.3,73.3,74.9,-18.2,-99.9,89,32,52,29.90,29.78,8,1,16,0.00
2013-10-7,91.0,40.7,76.1,75.0,-18.7,-99.9,87,30,55,29.91,29.82,6,1,16,0.00
2013-10-8,87.2,38.2,76.8,75.2,-20.4,-99.9,86,33,63,29.94,29.84,5,1,14,0.00
2013-10-9,90.5,40.4,74.7,74.8,-19.6,-99.9,87,29,50,29.93,29.83,9,2,17,0.00
2013-10-10,88.4,34.9,74.9,74.0,-28.4,-99.9,84,28,57,29.91,29.83,8,1,19,0.02
2013-10-11,-200.0,0.0,200.0,-99.9,-99.9,-99.9,0,0,100,29.88,29.84,0,0,0,0.00
2013-10-28,89.3,38.9,74.2,72.9,-21.7,-99.9,87,29,48,29.96,29.86,9,2,18,0.00
2013-10-29,84.3,38.8,75.1,75.6,-16.2,-99.9,90,39,71,29.97,29.83,6,0,14,0.08
2013-10-30,87.4,37.1,74.7,73.0,-23.2,-99.9,90,31,54,29.92,29.82,6,1,16,0.04
2013-10-31,86.5,35.8,74.4,73.6,-24.6,-99.9,88,32,60,29.89,29.77,9,1,27,0.45
2013-11-1,84.7,44.2,74.4,73.5,-6.6,-99.9,91,40,67,29.85,29.77,6,1,15,0.00
2013-11-17,84.5,33.3,75.1,71.6,-31.5,-99.9,89,26,50,29.85,29.74,9,2,16,0.00
2013-11-18,83.2,34.9,73.9,70.8,-27.2,-99.9,90,29,55,29.80,29.69,8,2,17,0.00
2013-11-19,83.8,33.3,71.3,69.2,-30.0,-99.9,89,28,57,29.86,29.73,5,1,13,0.01
2013-11-20,86.1,42.6,69.8,69.7,-12.0,-99.9,88,34,52,29.94,29.83,5,1,13,0.00